Вернуться в каталог

SL-16 DEB

АктивенLEO
NORAD 22354·DEBRIS·🇷🇺 Russia

Запущен Dec 25, 1992 с Baikonur Cosmodrome

Loading…

Ближайшие Пролёты (ближайшие 24 часа)

TLE

СвежийSource: Space-Track

Эпоха: Sep 14, 2026, 01:44 UTC

1 22354U 92093AT  26257.07259030  .00000034  00000-0  54557-4 0  9994
2 22354  71.1479  10.7172 0140990  62.3463 109.2367 13.93025223710648

Отслеживайте SL-16 DEB в реальном времени с AllMySat

Download on the App Store